Location: Newark
(9.4667°S, 159.8167°E)
Time: 04:16:59
(UTC+00:00)

Courier 1B Rocket - Pass Details

Date: 24 November 2019
Orbit: 920 x 1202 km, 28.2° (Epoch: 12 December)

Event Time Altitude Azimuth Distance (km) Brightness Sun altitude
Rises 17:47:58 0° 229° (SW) 3,834 7.9 -14.8°
Reaches altitude 10° 17:51:36 10° 213° (SSW) 2,823 7.3 -14.0°
Maximum altitude 17:56:25 20° 167° (SSE) 2,117 7.2 -12.9°
Drops below altitude 10° 18:01:02 10° 122° (ESE) 2,690 8.8 -11.9°
Sets 18:04:23 0° 105° (ESE) 3,599 10.0 -11.1°
